Weather History for Red Wing, MN

Change the Weather History Date:

Monday, October 10, 2011

  Actual Average Record
Temperature  
Mean Temperature 67 °F -  
Max Temperature 77 °F 61 °F 78 °F (2003)
Min Temperature 57 °F 38 °F 24 °F (2000)
Cooling Degree Days 2    
Growing Degree Days 17 (Base 50)    
Moisture  
Dew Point 49 °F    
Average Humidity 54    
Maximum Humidity 77    
Minimum Humidity 31    
Precipitation  
Precipitation 0.00 in - - ()
Sea Level Pressure  
Sea Level Pressure 30.04 in    
Wind  
Wind Speed 6 mph (SE)    
Max Wind Speed 16 mph    
Max Gust Speed 24 mph    
Visibility 10 miles    
Events Rain    
Averages and records for this station are not official NWS values.
T = Trace of Precipitation, MM = Missing Value Source: NWS Daily Summary

Daily Weather History Graph

Daily Weather History Graph

Search for Another Location

Airport:

Trip Planner

Search our weather history database for the weather conditions in past years. The results will help you decide how hot, cold, wet, or windy it might be!

Date:

Astronomy

Oct. 10, 2011 Rise Set
Actual Time 7:18 AM CDT 6:34 PM CDT
Civil Twilight 6:49 AM CDT 7:03 PM CDT
Nautical Twilight 6:15 AM CDT 7:37 PM CDT
Astronomical Twilight 5:41 AM CDT 8:11 PM CDT
Moon 5:38 PM CDT (10/10) 5:59 AM CDT (10/10)
Length of Visible Light 12h 14m
Length of Day
11h 16m
Waxing Gibbous, 98% of the Moon is Illuminated
Oct 10
Waxing Gibbous
Oct 11
Full
Oct 19
Last Quarter
Oct 26
New
Nov 2
First Quarter

Hourly Weather History & Observations

Time (CDT) Temp. Dew Point Humidity Pressure Visibility Wind Dir Wind Speed Gust Speed Precip Events Conditions
12:15 AM 62.6 °F 53.6 °F 72% 30.16 in 10.0 mi ESE 4.6 mph - N/A   Clear
12:35 AM 64.4 °F 53.6 °F 68% 30.15 in 10.0 mi SE 6.9 mph - N/A   Clear
1:15 AM 64.4 °F 53.6 °F 68% 30.14 in 10.0 mi ESE 5.8 mph - N/A   Clear
1:35 AM 64.4 °F 53.6 °F 68% 30.14 in 10.0 mi SE 5.8 mph - N/A   Clear
2:15 AM 64.4 °F 51.8 °F 64% 30.14 in 10.0 mi ESE 5.8 mph - N/A   Clear
2:35 AM 64.4 °F 51.8 °F 64% 30.14 in 10.0 mi SE 3.5 mph - N/A   Clear
2:55 AM 62.6 °F 51.8 °F 68% 30.13 in 10.0 mi East 4.6 mph - N/A   Clear
3:35 AM 60.8 °F 50.0 °F 68% 30.12 in 10.0 mi ESE 4.6 mph - N/A   Clear
4:14 AM 60.8 °F 50.0 °F 68% 30.12 in 10.0 mi ESE 4.6 mph - N/A   Clear
4:35 AM 60.8 °F 50.0 °F 68% 30.12 in 10.0 mi SE 5.8 mph - N/A   Clear
4:55 AM 60.8 °F 50.0 °F 68% 30.12 in 10.0 mi SE 6.9 mph - N/A   Clear
5:14 AM 60.8 °F 50.0 °F 68% 30.12 in 10.0 mi ESE 3.5 mph - N/A   Clear
5:35 AM 60.8 °F 48.2 °F 63% 30.12 in 10.0 mi SE 6.9 mph - N/A   Clear
5:55 AM 60.8 °F 48.2 °F 63% 30.12 in 10.0 mi ESE 5.8 mph - N/A   Clear
6:14 AM 60.8 °F 48.2 °F 63% 30.12 in 10.0 mi ESE 6.9 mph - N/A   Clear
6:35 AM 59.0 °F 46.4 °F 63% 30.11 in 10.0 mi ESE 3.5 mph - N/A   Clear
6:55 AM 57.2 °F 46.4 °F 67% 30.11 in 10.0 mi ESE 4.6 mph - N/A   Clear
7:14 AM 59.0 °F 46.4 °F 63% 30.11 in 10.0 mi ESE 4.6 mph - N/A   Clear
7:35 AM 59.0 °F 46.4 °F 63% 30.10 in 10.0 mi ESE 5.8 mph - N/A   Clear
8:14 AM 62.6 °F 48.2 °F 59% 30.10 in 10.0 mi SE 8.1 mph - N/A   Clear
8:35 AM 62.6 °F 48.2 °F 59% 30.09 in 10.0 mi SE 10.4 mph - N/A   Clear
8:55 AM 64.4 °F 48.2 °F 56% 30.09 in 10.0 mi SE 9.2 mph - N/A   Clear
9:15 AM 64.4 °F 48.2 °F 56% 30.10 in 10.0 mi SSE 6.9 mph - N/A   Clear
9:35 AM 66.2 °F 48.2 °F 52% 30.10 in 10.0 mi SE 9.2 mph - N/A   Clear
9:55 AM 66.2 °F 48.2 °F 52% 30.09 in 10.0 mi SE 9.2 mph - N/A   Clear
10:14 AM 68.0 °F 48.2 °F 49% 30.09 in 10.0 mi SE 9.2 mph - N/A   Clear
10:35 AM 69.8 °F 48.2 °F 46% 30.08 in 10.0 mi SE 10.4 mph - N/A   Clear
10:55 AM 69.8 °F 50.0 °F 49% 30.08 in 10.0 mi ESE 9.2 mph - N/A   Clear
11:14 AM 71.6 °F 48.2 °F 43% 30.07 in 10.0 mi SE 8.1 mph - N/A   Clear
11:35 AM 71.6 °F 48.2 °F 43% 30.07 in 10.0 mi SE 9.2 mph - N/A   Clear
11:55 AM 73.4 °F 50.0 °F 44% 30.06 in 10.0 mi SE 10.4 mph - N/A   Clear
12:14 PM 73.4 °F 50.0 °F 44% 30.05 in 10.0 mi SE 8.1 mph - N/A   Clear
12:35 PM 75.2 °F 48.2 °F 38% 30.04 in 10.0 mi SSE 6.9 mph - N/A   Clear
12:55 PM 77.0 °F 46.4 °F 34% 30.03 in 10.0 mi South 11.5 mph 19.6 mph N/A   Clear
1:14 PM 77.0 °F 46.4 °F 34% 30.02 in 10.0 mi South 6.9 mph - N/A   Clear
1:35 PM 75.2 °F 46.4 °F 36% 30.02 in 10.0 mi South 8.1 mph - N/A   Clear
1:54 PM 75.2 °F 46.4 °F 36% 30.01 in 10.0 mi South 9.2 mph - N/A   Clear
2:15 PM 77.0 °F 44.6 °F 32% 29.99 in 10.0 mi South 10.4 mph - N/A   Clear
2:35 PM 75.2 °F 44.6 °F 34% 29.99 in 10.0 mi South 10.4 mph - N/A   Clear
3:15 PM 75.2 °F 44.6 °F 34% 29.97 in 10.0 mi South 11.5 mph - N/A   Clear
3:34 PM 75.2 °F 44.6 °F 34% 29.97 in 10.0 mi South 8.1 mph - N/A   Clear
3:55 PM 75.2 °F 44.6 °F 34% 29.96 in 10.0 mi SSE 9.2 mph - N/A   Clear
4:14 PM 75.2 °F 42.8 °F 31% 29.95 in 10.0 mi South 12.7 mph 16.1 mph N/A   Clear
4:35 PM 73.4 °F 42.8 °F 33% 29.95 in 10.0 mi South 10.4 mph 16.1 mph N/A   Clear
4:54 PM 75.2 °F 42.8 °F 31% 29.95 in 10.0 mi South 12.7 mph - N/A   Clear
5:15 PM 75.2 °F 44.6 °F 34% 29.93 in 10.0 mi SSE 12.7 mph - N/A   Clear
5:34 PM 75.2 °F 42.8 °F 31% 29.93 in 10.0 mi South 16.1 mph 24.2 mph N/A   Clear
5:55 PM 73.4 °F 42.8 °F 33% 29.93 in 10.0 mi SSE 10.4 mph - N/A   Clear
6:35 PM 73.4 °F 44.6 °F 36% 29.94 in 10.0 mi South 6.9 mph - N/A   Mostly Cloudy
7:15 PM 69.8 °F 50.0 °F 49% 29.95 in 10.0 mi West 6.9 mph - N/A   Overcast
7:35 PM 66.2 °F 53.6 °F 64% 29.96 in 10.0 mi SW 6.9 mph - N/A Rain Light Rain
7:55 PM 66.2 °F 55.4 °F 68% 29.95 in 10.0 mi WSW 3.5 mph - N/A   Scattered Clouds
8:35 PM 66.2 °F 55.4 °F 68% 29.95 in 10.0 mi Calm Calm - N/A   Mostly Cloudy
8:55 PM 66.2 °F 55.4 °F 68% 29.95 in 10.0 mi Calm Calm - N/A   Scattered Clouds
9:15 PM 64.4 °F 55.4 °F 73% 29.95 in 10.0 mi Calm Calm - N/A   Mostly Cloudy
9:35 PM 64.4 °F 55.4 °F 73% 29.95 in 10.0 mi Calm Calm - N/A   Scattered Clouds
9:54 PM 64.4 °F 55.4 °F 73% 29.95 in 10.0 mi Calm Calm - N/A   Scattered Clouds
10:35 PM 64.4 °F 55.4 °F 73% 29.95 in 10.0 mi Calm Calm - N/A   Scattered Clouds
10:55 PM 62.6 °F 55.4 °F 77% 29.96 in 10.0 mi Calm Calm - N/A   Scattered Clouds
11:15 PM 62.6 °F 55.4 °F 77% 29.96 in 10.0 mi Calm Calm - N/A   Scattered Clouds
11:35 PM 62.6 °F 55.4 °F 77% 29.96 in 10.0 mi Calm Calm - N/A   Mostly Cloudy